Weather History for Crestview, FL

Change the Weather History Date:

Saturday, March 30, 2013

  Actual Average Record
Temperature  
Mean Temperature 59 °F -  
Max Temperature 74 °F - - ()
Min Temperature 44 °F - - ()
Degree Days  
Heating Degree Days 6    
Growing Degree Days 9 (Base 50)    
Moisture  
Dew Point 52 °F    
Average Humidity 82    
Maximum Humidity 100    
Minimum Humidity 44    
Precipitation  
Precipitation 0.00 in - - ()
Sea Level Pressure  
Sea Level Pressure 30.17 in    
Wind  
Wind Speed 5 mph (South)    
Max Wind Speed 15 mph    
Max Gust Speed 22 mph    
Visibility 6 miles    
Events Fog    
T = Trace of Precipitation, MM = Missing Value Source: NWS Daily Summary

Daily Weather History Graph

Daily Weather History Graph

Search for Another Location

Airport:

Trip Planner

Search our weather history database for the weather conditions in past years. The results will help you decide how hot, cold, wet, or windy it might be!

Date:

Astronomy

Mar. 30, 2013 Rise Set
Actual Time 6:37 AM CDT 7:04 PM CDT
Civil Twilight 6:13 AM CDT 7:28 PM CDT
Nautical Twilight 5:44 AM CDT 7:56 PM CDT
Astronomical Twilight 5:16 AM CDT 8:25 PM CDT
Moon 10:53 PM CDT (3/30) 8:47 AM CDT (3/30)
Length of Visible Light 13h 15m
Length of Day
12h 26m
Waning Gibbous, 86% of the Moon is Illuminated
Mar 30
Waning Gibbous
Apr 2
Last Quarter
Apr 10
New
Apr 18
First Quarter
Apr 25
Full

Hourly Weather History & Observations

Time (CDT) Temp. Windchill Dew Point Humidity Pressure Visibility Wind Dir Wind Speed Gust Speed Precip Events Conditions
12:58 AM 52.0 °F - 49.6 °F 92% 30.22 in 10.0 mi South 4.6 mph - N/A   Clear
1:58 AM 51.6 °F - 50.5 °F 96% 30.22 in 10.0 mi South 4.6 mph - N/A   Clear
2:58 AM 51.3 °F - 50.5 °F 97% 30.20 in 6.0 mi SSE 3.5 mph - N/A   Clear
3:18 AM 50.0 °F - 50.0 °F 100% 30.18 in 2.0 mi South 4.6 mph - N/A   Clear
3:23 AM 50.0 °F - 50.0 °F 100% 30.18 in 0.8 mi South 4.6 mph - N/A   Clear
3:28 AM 50.0 °F - 50.0 °F 100% 30.18 in 0.5 mi South 4.6 mph - N/A Fog Fog
3:58 AM 51.8 °F - 50.0 °F 94% 30.19 in 0.2 mi South 3.5 mph - N/A Fog Fog
4:03 AM 51.8 °F - 50.0 °F 94% 30.18 in 0.2 mi South 2.3 mph - N/A Fog Fog
4:53 AM 46.4 °F 45.2 °F 46.4 °F 100% 30.18 in 0.2 mi South 3.5 mph - N/A Fog Fog
4:58 AM 46.2 °F 45.0 °F 46.0 °F 99% 30.19 in 0.2 mi South 3.5 mph - N/A Fog Fog
5:48 AM 46.4 °F 44.3 °F 46.4 °F 100% 30.19 in 0.5 mi South 4.6 mph - N/A Fog Fog
5:58 AM 46.9 °F - 46.8 °F 99% 30.20 in 0.5 mi SSE 2.3 mph - N/A Fog Fog
6:13 AM 44.6 °F - 44.6 °F 100% 30.19 in 0.2 mi South 2.3 mph - N/A Fog Fog
6:58 AM 45.0 °F - 44.8 °F 99% 30.21 in 0.2 mi Calm Calm - N/A Fog Fog
7:53 AM 48.2 °F - 48.2 °F 100% 30.20 in 0.5 mi Calm Calm - N/A Fog Fog
7:58 AM 48.2 °F - 48.2 °F 100% 30.21 in 0.8 mi Calm Calm - N/A   Clear
8:03 AM 50.0 °F - 50.0 °F 100% 30.21 in 1.2 mi Calm Calm - N/A   Clear
8:08 AM 51.8 °F - 50.0 °F 94% 30.21 in 2.5 mi Calm Calm - N/A   Clear
8:13 AM 51.8 °F - 51.8 °F 100% 30.21 in 5.0 mi Calm Calm - N/A   Clear
8:58 AM 60.1 °F - 60.1 °F 100% 30.22 in 10.0 mi South 4.6 mph - N/A   Clear
9:58 AM 68.4 °F - 51.3 °F 54% 30.22 in 10.0 mi South 9.2 mph - N/A   Clear
10:58 AM 70.9 °F - 51.3 °F 50% 30.21 in 10.0 mi South 9.2 mph - N/A   Partly Cloudy
11:58 AM 73.4 °F - 50.9 °F 45% 30.20 in 10.0 mi South 12.7 mph - N/A   Clear
12:30 PM 73.4 °F - 51.8 °F 47% 30.18 in 10.0 mi SSE 15.0 mph 19.6 mph N/A   Scattered Clouds
12:58 PM 74.1 °F - 50.7 °F 44% 30.18 in 10.0 mi SSE 13.8 mph - N/A   Partly Cloudy
1:58 PM 71.6 °F - 53.4 °F 53% 30.17 in 10.0 mi SSW 12.7 mph - N/A   Scattered Clouds
2:58 PM 73.9 °F - 52.2 °F 46% 30.15 in 10.0 mi SSW 13.8 mph 20.7 mph N/A   Partly Cloudy
3:58 PM 73.0 °F - 55.9 °F 55% 30.13 in 10.0 mi SSW 12.7 mph - N/A   Partly Cloudy
4:06 PM 71.6 °F - 55.4 °F 57% 30.12 in 10.0 mi SSW 15.0 mph 20.7 mph N/A   Partly Cloudy
4:16 PM 73.4 °F - 55.4 °F 53% 30.11 in 10.0 mi South 12.7 mph 21.9 mph N/A   Mostly Cloudy
4:58 PM 70.7 °F - 56.3 °F 60% 30.12 in 10.0 mi South 12.7 mph - N/A   Partly Cloudy
5:58 PM 68.4 °F - 57.9 °F 69% 30.12 in 10.0 mi SSE 12.7 mph - N/A   Overcast
6:58 PM 65.8 °F - 57.9 °F 76% 30.10 in 10.0 mi South 9.2 mph - N/A   Partly Cloudy
7:58 PM 64.4 °F - 58.5 °F 81% 30.09 in 10.0 mi SSE 8.1 mph - N/A   Mostly Cloudy
8:58 PM 62.2 °F - 58.3 °F 87% 30.09 in 10.0 mi SSE 5.8 mph - N/A   Clear
9:58 PM 60.3 °F - 57.4 °F 90% 30.10 in 10.0 mi South 5.8 mph - N/A   Clear
10:58 PM 58.1 °F - 57.2 °F 97% 30.10 in 10.0 mi South 5.8 mph - N/A   Clear
11:58 PM 57.2 °F - 57.0 °F 99% 30.09 in 10.0 mi South 4.6 mph - N/A   Clear